Snowfall_Accumulation
0.0 0.0 0.0 0.0 0.0 0.0 0.0 0.0 0.0 0.1 0.0 0.0 0.0 0.0 0.0 0.0 0.0 0.0 0.0 0.0 0.0 0.0 0.0 0.0 0.0 0.0 0.0
0.6 0.7 0.5 0.0 0.0 0.0 0.0 0.0 0.0 0.0 0.0 0.0 0.0 0.0 0.0 0.0 0.3 0.2 0.3 0.0 0.0 0.0 0.0 0.0 0.0 0.0 0.0
0.5 0.2 0.7 0.0 2.1 0.3 0.0 0.0 0.0 0.0 0.0 0.0 0.0 0.0 0.0 0.0 0.1 0.1 0.1 0.3 0.1 0.0 0.0 0.0 0.0 0.0 0.0
0.6 0.7 1.5 0.9 0.7 1.1 0.3 0.4 0.0 0.0 0.0 0.0 0.0 0.0 0.0 0.0 0.0 0.0 0.0 0.0 0.0 0.0 0.0 0.0 0.1 0.0 0.0
1.8 1.4 0.4 0.3 0.2 0.1 0.3 0.1 0.1 0.0 0.0 0.0 0.0 0.0 0.0 0.0 0.0 0.0 0.0 0.0 0.1 0.4 0.4 0.5 0.3 0.2 0.0
1.6 0.2 0.0 0.1 0.0 0.1 0.6 0.4 0.6 0.0 0.0 0.0 0.0 0.0 0.0 0.0 0.0 0.0 0.1 0.1 0.1 0.2 0.8 0.3 0.6 0.5 0.5
0.2 0.0 0.0 0.1 0.8 0.7 0.6 1.3 0.6 0.0 0.0 0.2 0.0 0.0 0.0 0.0 0.0 0.0 0.0 0.1 0.1 0.4 0.7 0.7 0.3 0.5 0.3
0.0 0.0 0.4 0.1 0.4 0.9 0.7 1.3 0.6 0.0 0.0 1.6 0.0 0.0 0.0 0.0 0.0 0.0 0.0 0.1 0.1 0.4 0.6 0.9 0.5 0.3 0.4
0.2 0.0 0.0 0.0 0.0 0.7 3.9 4.0 2.1 0.4 0.0 0.6 0.2 0.0 0.1 0.0 0.0 0.0 0.0 0.1 0.1 0.1 0.2 0.3 0.4 0.5 0.4
0.0 0.0 0.0 0.0 0.0 0.0 2.0 5.4 3.7 2.9 0.3 2.1 0.3 0.9 2.9 0.0 0.0 0.0 0.0 0.0 0.0 0.0 0.0 0.3 0.4 0.5 0.9
0.7 0.1 0.0 0.0 1.2 0.8 0.3 3.7 6.7 5.2 0.0 5.3 7.2 2.1 4.8 1.5 0.1 0.0 0.0 0.0 0.2 0.0 0.0 0.0 1.1 1.7 3.2
1.9 1.6 1.4 0.6 0.3 0.9 0.9 0.2 0.6 3.2 0.9 1.6 11.9 3.5 6.3 5.1 0.8 0.0 0.0 0.0 0.0 0.2 0.2 0.9 1.4 2.3 2.2
1.1 0.9 0.5 1.2 1.4 1.8 1.5 2.2 2.0 0.9 0.5 1.5 4.5 4.4 8.1 8.2 3.9 0.5 1.1 0.0 0.0 0.8 1.6 2.3 2.5 2.8 3.0
2.0 1.1 1.5 1.5 1.6 1.3 2.8 1.8 3.7 1.7 1.6 1.2 1.6 4.6 7.8 3.8 5.6 3.5 1.1 2.5 0.8 0.8 1.9 1.5 1.7 2.5 3.0
2.3 2.1 1.4 1.5 1.6 1.5 3.2 3.4 5.3 1.5 1.5 1.6 2.4 3.0 2.9 3.6 6.4 1.7 1.7 1.4 2.0 3.1 3.1 2.3 0.8 2.4 3.0
3.6 3.7 5.6 5.1 3.8 5.2 4.5 6.0 7.4 5.5 5.8 5.2 3.9 6.4 5.2 5.0 3.3 3.2 2.7 2.4 2.5 2.8 2.9 5.9 2.7 0.6 0.6
8.6 8.1 8.3 8.3 7.9 6.7 6.1 6.9 7.3 6.9 7.2 7.3 9.0 11.1 12.5 6.5 3.5 1.4 6.5 4.9 2.4 3.3 3.0 4.6 5.8 3.9 1.9